Location: Dobrzeń Wielki
(50.7693°N, 17.8414°E)
Time: 11:55:58
(UTC+01:00)

Envisat - Pass Details

Date: 25 October 2019
Orbit: 764 x 766 km, 98.1° (Epoch: 14 November)

Event Time Altitude Azimuth Distance (km) Brightness Sun altitude
Rises 18:05:16 0° 147° (SSE) 3,223 6.0 -5.1°
Reaches altitude 10° 18:07:37 10° 142° (SE) 2,301 5.2 -5.5°
Maximum altitude 18:12:30 50° 68° (ENE) 977 3.2 -6.2°
Drops below altitude 10° 18:17:24 10° 355° (N) 2,316 5.4 -7.0°
Sets 18:19:46 0° 350° (N) 3,246 6.3 -7.4°
